Dewpoint
72 69 69 68 63 56 35 38 42 44 45 47 49 48 54 54 52 54 61 64 64 63 69 71 77 76 76 76 76 76 75 74 74 74 74 73 73 73 73 73 72 73 73 73 73 73 73 73 72
67 67 67 64 58 33 35 40 42 47 47 45 49 50 53 54 56 58 60 65 64 64 64 69 77 77 76 76 76 76 75 74 74 75 74 73 72 73 74 73 73 73 73 73 74 73 72 72 72
69 69 62 60 34 33 37 41 42 43 45 46 49 51 52 53 56 58 60 64 64 63 63 73 76 76 75 76 76 76 76 75 75 75 74 73 73 73 72 73 73 74 73 73 73 72 72 71 72
68 66 63 45 31 35 37 35 37 41 44 45 51 51 54 55 56 60 60 63 62 63 68 75 77 75 75 75 75 75 75 75 74 74 74 73 73 73 72 72 73 73 73 73 73 72 71 72 72
64 60 54 33 33 37 38 34 38 39 43 44 50 52 55 58 60 61 60 60 65 66 69 71 77 76 76 75 76 76 75 75 75 74 74 73 74 73 72 73 73 73 73 73 73 71 73 72 73
60 56 50 31 33 36 38 35 37 40 43 46 49 53 56 59 59 60 59 64 64 68 69 71 76 76 76 75 74 75 75 75 74 74 73 72 73 72 72 72 72 73 73 73 73 72 73 73 73
57 57 41 36 34 37 37 36 34 33 39 44 47 51 56 57 60 60 61 63 67 67 70 72 72 74 75 75 75 75 75 74 74 74 74 74 73 73 72 73 72 73 73 73 73 73 72 73 73
51 46 47 39 39 36 39 38 37 33 41 47 49 51 54 58 59 60 61 63 63 69 70 71 74 74 74 73 75 75 74 74 74 74 74 73 73 73 73 74 75 73 73 73 72 72 74 73 72
47 45 41 32 32 42 40 43 43 44 43 43 46 50 54 58 59 60 61 62 64 68 69 70 72 75 76 75 74 76 75 74 74 74 74 73 72 72 71 74 75 74 74 73 73 73 74 73 73
41 41 40 30 31 39 40 39 42 58 49 46 48 53 56 58 60 61 62 61 62 62 67 69 71 72 74 71 76 74 73 72 73 73 75 73 73 73 71 74 74 73 74 74 73 74 74 74 70
31 35 27 28 30 31 42 39 43 51 51 48 49 53 55 58 60 61 61 61 63 64 64 70 70 73 70 71 75 73 73 74 75 75 74 75 75 75 72 73 72 73 74 72 73 73 71 71 70
27 28 29 26 26 27 31 34 38 38 44 44 50 53 54 57 59 60 61 62 62 65 65 65 70 74 74 73 73 72 72 74 73 74 70 75 73 74 74 72 74 73 73 71 72 70 71 70 71
27 27 27 27 27 26 31 31 33 36 42 44 50 52 54 55 58 60 60 61 63 66 67 69 73 76 76 78 77 74 72 73 73 74 69 74 75 74 74 73 74 72 72 74 75 72 73 73 70
26 28 27 26 27 28 31 31 32 35 40 45 48 51 53 54 56 58 60 62 63 66 68 71 73 76 76 76 77 77 77 76 74 73 69 72 74 74 74 74 74 75 75 75 76 74 73 72 72
25 24 25 26 26 28 34 31 31 37 40 45 47 51 54 56 55 58 61 64 64 67 68 72 74 75 76 77 78 77 77 77 76 74 73 71 72 72 74 74 76 75 76 76 77 74 74 73 72
24 23 20 22 24 32 32 34 38 39 40 44 47 49 52 55 55 58 61 65 67 67 71 72 71 74 76 77 78 75 76 75 74 75 76 72 71 72 74 74 73 74 75 76 76 75 73 72 73
21 20 20 21 31 34 34 32 37 38 37 44 47 51 51 54 58 61 60 62 66 70 73 74 75 74 76 77 77 75 73 73 74 75 74 75 72 72 73 74 73 74 74 75 75 74 74 73 72
17 18 19 21 31 33 32 27 34 35 34 37 42 52 54 53 55 58 60 61 65 71 73 75 75 77 78 77 78 76 72 74 76 74 74 76 74 72 73 72 73 74 72 71 74 74 73 73 72
14 14 16 20 20 23 23 24 25 28 24 25 42 50 54 54 56 57 59 62 65 69 74 76 77 78 78 77 75 73 70 74 75 74 74 75 75 73 72 72 72 74 72 72 73 72 72 71 72
13 13 15 17 18 19 18 19 22 24 27 26 26 42 49 52 56 58 62 62 64 69 74 77 77 78 78 78 73 72 73 72 75 76 74 74 74 74 72 71 72 73 73 72 70 70 71 73 73
11 14 18 16 15 15 17 18 25 24 28 27 27 31 44 50 54 59 62 63 63 69 73 76 77 79 79 78 74 73 72 75 75 74 72 72 74 74 73 73 72 72 71 69 69 70 69 67 72
8 12 11 10 11 9 12 11 32 26 31 27 26 31 31 50 55 61 62 64 63 68 73 77 78 79 78 78 74 73 72 72 75 73 71 72 73 74 74 73 72 72 70 71 71 72 71 70 69
10 10 9 9 10 11 12 10 20 33 35 26 30 34 35 42 51 58 62 64 65 68 74 76 78 76 76 77 76 74 74 73 73 75 72 74 76 74 72 73 73 74 74 73 72 72 72 72 71
8 10 10 12 9 12 17 12 16 19 34 35 34 39 39 38 40 54 62 66 66 73 74 75 73 72 73 75 75 75 74 75 74 74 72 75 76 75 72 72 74 74 74 74 73 73 73 71 71
10 9 9 12 11 11 18 13 23 24 33 33 32 35 36 40 42 53 63 66 71 73 73 71 72 71 71 72 73 74 74 75 75 75 75 74 75 75 73 71 71 74 74 74 73 73 72 72 72
12 11 9 18 12 13 24 19 21 27 29 28 24 29 38 40 46 54 64 68 72 70 70 68 70 70 73 73 74 75 76 74 77 75 75 75 73 71 73 71 71 71 72 72 72 72 73 72 72
13 15 8 12 15 11 13 21 28 33 24 23 25 41 43 51 51 57 68 70 71 71 70 69 70 72 73 72 74 75 76 75 76 75 75 72 74 71 71 70 70 71 71 71 72 72 71 71 72
12 10 13 14 21 20 15 24 29 36 26 44 49 50 55 56 54 65 68 70 70 69 70 70 70 71 72 71 73 75 74 75 75 75 74 72 72 71 70 70 70 70 68 68 70 71 71 70 71
12 11 12 9 18 15 17 24 38 41 44 51 53 55 57 59 58 61 64 66 67 67 69 69 70 71 71 71 73 75 74 74 73 73 72 71 72 71 70 70 71 70 70 70 70 70 70 69 70
13 14 15 15 26 21 24 24 32 38 43 50 53 55 58 60 61 63 64 66 65 67 69 70 71 71 71 74 74 73 73 72 72 72 72 72 71 71 71 70 70 68 68 68 68 67 69 69 69
Lifted_Index
-3 -3 -4 -5 -6 -4 -1 -0 -1 -1 -1 -1 -2 -2 -3 -3 -3 -4 -4 -5 -5 -4 -5 -6 -7 -8 -8 -9 -8 -8 -7 -6 -6 -6 -6 -5 -5 -5 -5 -5 -5 -5 -5 -5 -5 -4 -4 -3 -3
-3 -3 -4 -5 -5 -2 -0 -0 -0 -1 -1 -1 -2 -2 -2 -3 -3 -4 -4 -5 -5 -4 -4 -6 -7 -8 -8 -8 -8 -8 -7 -7 -6 -6 -6 -5 -5 -5 -5 -5 -5 -5 -5 -5 -5 -4 -3 -3 -3
-4 -4 -5 -5 -2 0 1 0 0 -0 -0 -1 -1 -2 -2 -2 -3 -4 -4 -5 -5 -4 -5 -6 -7 -7 -7 -8 -8 -8 -7 -7 -7 -7 -6 -6 -5 -5 -5 -5 -5 -5 -5 -5 -4 -4 -3 -3 -3
-5 -5 -5 -3 -1 0 1 1 1 1 0 -1 -1 -2 -2 -2 -3 -4 -4 -4 -5 -5 -5 -6 -7 -7 -7 -7 -7 -8 -7 -7 -7 -7 -6 -6 -6 -6 -5 -5 -5 -5 -5 -5 -4 -4 -3 -3 -3
-5 -5 -4 -2 -1 -0 0 1 1 1 1 -0 -1 -2 -3 -3 -3 -3 -4 -4 -5 -5 -5 -6 -7 -7 -7 -7 -7 -7 -8 -7 -7 -7 -7 -6 -6 -6 -6 -5 -5 -5 -5 -5 -4 -4 -3 -3 -4
-4 -4 -3 -1 -1 -1 -0 0 1 1 1 0 -1 -2 -3 -3 -3 -3 -3 -4 -5 -6 -6 -6 -7 -7 -7 -7 -7 -7 -7 -8 -7 -7 -7 -6 -6 -6 -6 -5 -5 -5 -5 -5 -4 -4 -4 -4 -4
-3 -3 -2 -1 -1 -1 -0 0 1 1 1 0 -1 -2 -2 -2 -2 -2 -3 -4 -5 -6 -6 -6 -6 -7 -7 -7 -7 -7 -7 -7 -7 -7 -7 -6 -6 -6 -6 -6 -5 -5 -4 -4 -4 -4 -4 -4 -4
-2 -2 -1 -1 -1 -1 -1 -0 0 0 0 -0 -1 -1 -2 -2 -2 -2 -3 -3 -4 -5 -6 -6 -6 -6 -6 -6 -7 -7 -7 -7 -7 -7 -6 -6 -6 -6 -6 -6 -6 -5 -5 -4 -4 -4 -4 -3 -3
-2 -2 -1 -1 -1 -1 -1 -1 -1 -1 -1 -1 -1 -1 -2 -2 -2 -3 -3 -3 -4 -5 -5 -6 -6 -6 -6 -6 -6 -7 -7 -7 -7 -6 -6 -6 -5 -5 -5 -5 -5 -5 -5 -4 -4 -4 -4 -3 -3
-1 -1 -1 -1 -0 -1 -1 -1 -2 -2 -1 -2 -2 -2 -2 -2 -2 -3 -3 -3 -3 -4 -4 -5 -6 -6 -6 -6 -6 -6 -6 -6 -6 -6 -5 -5 -5 -5 -5 -5 -5 -5 -5 -5 -4 -4 -4 -3 -3
-1 -1 -1 -1 -0 -0 -1 -1 -2 -2 -2 -2 -2 -2 -2 -2 -3 -3 -4 -4 -4 -3 -4 -5 -6 -6 -6 -7 -7 -6 -6 -6 -6 -5 -4 -4 -4 -4 -5 -5 -5 -5 -5 -5 -4 -4 -3 -3 -3
-0 -1 -1 -1 -1 -0 -0 -1 -1 -2 -2 -2 -2 -3 -3 -3 -3 -3 -4 -4 -4 -4 -4 -5 -6 -7 -7 -7 -7 -7 -6 -6 -6 -4 -3 -3 -4 -4 -4 -4 -5 -5 -4 -4 -4 -4 -3 -3 -3
-1 -1 -1 -1 -1 -0 -0 -0 -1 -1 -2 -2 -2 -3 -3 -3 -3 -4 -4 -4 -4 -5 -5 -6 -7 -7 -7 -7 -7 -7 -6 -6 -6 -4 -2 -2 -3 -4 -4 -4 -4 -4 -4 -4 -4 -4 -3 -3 -3
-0 -0 -0 -1 -1 -0 0 -0 -0 -1 -1 -2 -2 -3 -3 -3 -3 -3 -4 -4 -5 -5 -6 -7 -8 -8 -8 -8 -7 -7 -6 -6 -5 -4 -2 -2 -2 -3 -3 -4 -4 -4 -4 -4 -4 -4 -3 -3 -3
0 0 0 -0 -1 -1 -0 -0 -0 -1 -1 -2 -2 -2 -3 -3 -3 -3 -4 -4 -5 -6 -6 -7 -8 -8 -8 -8 -8 -7 -6 -6 -5 -4 -3 -2 -2 -2 -2 -3 -3 -4 -4 -5 -4 -4 -4 -3 -4
2 1 -0 -1 -1 -1 -0 -0 -0 -0 -1 -2 -2 -2 -3 -3 -3 -4 -4 -4 -5 -6 -7 -7 -8 -8 -8 -8 -7 -6 -5 -5 -5 -5 -5 -4 -2 -2 -2 -2 -3 -3 -4 -4 -4 -4 -4 -3 -3
2 1 -0 -1 -1 -1 -0 -0 -0 -0 -1 -2 -2 -2 -3 -3 -4 -4 -4 -4 -5 -6 -7 -8 -8 -8 -9 -8 -7 -6 -5 -4 -5 -5 -5 -5 -3 -2 -2 -2 -2 -3 -3 -4 -4 -4 -4 -3 -3
0 -0 -1 -1 -1 -0 -0 -1 -1 -0 -1 -1 -2 -3 -3 -4 -4 -4 -4 -4 -5 -7 -8 -8 -8 -9 -9 -8 -7 -6 -4 -4 -5 -5 -5 -5 -4 -3 -2 -2 -2 -2 -3 -3 -3 -4 -4 -3 -3
-0 -1 -1 -1 -1 -1 -1 -1 -1 -1 -1 -1 -2 -3 -4 -4 -4 -4 -4 -4 -5 -7 -8 -9 -9 -9 -9 -8 -7 -5 -4 -4 -5 -5 -5 -5 -4 -3 -2 -2 -1 -2 -2 -2 -2 -3 -3 -3 -3
-1 -1 -1 -1 -1 -1 -1 -1 -0 -0 -1 -1 -1 -2 -3 -4 -4 -5 -4 -4 -5 -7 -8 -9 -9 -9 -9 -9 -7 -5 -5 -5 -5 -5 -5 -4 -4 -3 -2 -2 -2 -2 -2 -1 -1 -1 -2 -2 -2
-1 -1 -1 -1 -1 -1 -1 -1 -0 -0 -1 -1 -1 -1 -2 -4 -5 -5 -5 -5 -5 -7 -9 -9 -10 -10 -10 -9 -7 -5 -5 -5 -6 -5 -5 -5 -4 -4 -3 -3 -2 -2 -1 -1 -0 -1 -1 -1 -1
-1 -1 -1 -1 -1 -1 -1 -1 -1 -1 -1 -1 -1 -0 -1 -3 -5 -6 -6 -5 -6 -7 -9 -10 -10 -9 -9 -9 -7 -6 -6 -6 -6 -5 -5 -5 -4 -4 -4 -3 -3 -3 -2 -1 -1 -1 -1 -1 -1
-1 -0 -0 -1 -1 -1 -1 -1 -1 -1 -1 -1 -0 0 -0 -2 -4 -5 -6 -6 -6 -8 -9 -9 -9 -8 -8 -8 -7 -7 -6 -6 -6 -5 -5 -5 -4 -4 -4 -4 -4 -3 -3 -3 -2 -2 -2 -2 -1
-1 -1 -0 -0 -1 -0 -0 -0 -1 -1 -0 -0 -0 -0 -0 -1 -2 -5 -6 -7 -8 -9 -9 -8 -7 -6 -6 -6 -7 -7 -6 -6 -6 -5 -5 -4 -4 -3 -3 -3 -3 -4 -4 -4 -3 -3 -3 -2 -2
-1 -1 -0 -1 -1 -0 -0 -1 -1 -1 -0 -0 -0 -1 -1 -1 -2 -4 -7 -8 -9 -9 -8 -7 -6 -5 -5 -6 -6 -7 -6 -6 -6 -5 -5 -4 -3 -3 -2 -2 -3 -3 -4 -3 -3 -3 -3 -3 -3
-0 -1 -1 -1 -1 -1 -1 -1 -1 -1 -0 -0 -0 -1 -1 -1 -2 -5 -7 -9 -9 -9 -8 -6 -5 -5 -5 -6 -7 -7 -7 -7 -6 -6 -5 -4 -3 -2 -2 -2 -2 -3 -3 -3 -2 -3 -3 -3 -3
-0 -0 -1 -1 -1 -1 -1 -1 -1 -0 -1 -1 -1 -2 -2 -2 -4 -6 -9 -10 -10 -9 -8 -6 -6 -6 -6 -6 -7 -8 -8 -7 -6 -6 -5 -4 -3 -2 -2 -1 -2 -2 -2 -2 -2 -2 -2 -2 -2
-0 -1 -1 -1 -1 -1 -1 -1 -0 -0 -1 -2 -3 -3 -4 -4 -5 -7 -9 -10 -9 -9 -8 -7 -6 -6 -6 -5 -7 -8 -8 -7 -6 -5 -4 -3 -3 -2 -1 -1 -2 -2 -1 -1 -2 -2 -2 -2 -2
-1 -1 -1 -1 -1 -1 -1 -0 -0 -0 -2 -4 -5 -5 -5 -6 -6 -8 -9 -9 -9 -8 -8 -7 -7 -7 -6 -6 -8 -8 -7 -6 -6 -5 -4 -4 -3 -2 -2 -2 -2 -2 -1 -1 -1 -2 -2 -2 -2
-1 -1 -1 -1 -1 -1 -1 -0 -0 -0 -2 -4 -5 -5 -6 -6 -7 -8 -8 -8 -8 -8 -8 -8 -7 -7 -7 -7 -8 -8 -7 -6 -5 -5 -4 -4 -3 -3 -2 -2 -2 -2 -2 -1 -1 -2 -2 -2 -2